TimeEST,TemperatureF,Dew PointF,Humidity,Sea Level PressureIn,VisibilityMPH,Wind Direction,Wind SpeedMPH,Gust SpeedMPH,PrecipitationIn,Events,Conditions,WindDirDegrees,DateUTC
12:53 AM,45.0,30.9,58,30.26,10.0,Calm,Calm,-,N/A,,Overcast,0,2012-02-04 05:53:00
1:53 AM,42.1,36.0,79,30.24,10.0,Calm,Calm,-,N/A,,Overcast,0,2012-02-04 06:53:00
2:53 AM,43.0,35.1,74,30.23,10.0,Calm,Calm,-,N/A,,Overcast,0,2012-02-04 07:53:00
3:53 AM,42.1,35.1,76,30.22,10.0,Calm,Calm,-,N/A,,Overcast,0,2012-02-04 08:53:00
4:53 AM,43.0,34.0,71,30.21,10.0,Calm,Calm,-,N/A,,Overcast,0,2012-02-04 09:53:00
5:53 AM,44.1,33.1,65,30.21,10.0,Calm,Calm,-,N/A,,Overcast,0,2012-02-04 10:53:00
6:53 AM,44.1,34.0,68,30.22,10.0,Calm,Calm,-,0.00,Rain,Light Rain,0,2012-02-04 11:53:00
7:53 AM,42.1,39.0,89,30.23,6.0,Calm,Calm,-,0.01,Rain,Light Rain,0,2012-02-04 12:53:00
8:53 AM,42.1,39.9,92,30.22,7.0,Calm,Calm,-,0.03,Rain,Light Rain,0,2012-02-04 13:53:00
9:53 AM,43.0,41.0,93,30.20,8.0,ENE,3.5,-,0.02,,Overcast,60,2012-02-04 14:53:00
10:53 AM,44.1,42.1,93,30.17,4.0,East,3.5,-,0.01,Rain,Light Rain,100,2012-02-04 15:53:00
11:30 AM,44.6,42.8,93,30.18,2.5,Calm,Calm,-,0.01,Rain,Rain,0,2012-02-04 16:30:00
11:50 AM,44.6,44.6,100,30.17,3.0,Calm,Calm,-,0.04,,Overcast,0,2012-02-04 16:50:00
11:53 AM,45.0,43.0,93,30.15,3.0,Calm,Calm,-,0.04,,Overcast,0,2012-02-04 16:53:00
12:45 PM,46.4,44.6,93,30.14,3.0,Variable,3.5,-,0.02,,Overcast,0,2012-02-04 17:45:00
12:53 PM,46.9,46.0,97,30.11,3.0,South,3.5,-,0.02,,Overcast,180,2012-02-04 17:53:00
1:09 PM,46.4,46.4,100,30.13,2.0,WSW,3.5,-,N/A,,Overcast,240,2012-02-04 18:09:00
1:53 PM,46.9,46.0,97,30.09,2.0,Calm,Calm,-,N/A,,Overcast,0,2012-02-04 18:53:00
2:28 PM,48.2,46.4,93,30.09,2.0,SE,3.5,-,N/A,,Overcast,140,2012-02-04 19:28:00
2:53 PM,48.9,46.0,90,30.08,2.0,WNW,5.8,-,N/A,,Overcast,300,2012-02-04 19:53:00
3:10 PM,48.2,46.4,93,30.10,2.0,NW,8.1,-,0.00,Rain,Light Rain,320,2012-02-04 20:10:00
3:41 PM,46.4,44.6,93,30.10,2.0,NW,4.6,-,0.00,Rain,Rain,320,2012-02-04 20:41:00
3:53 PM,46.9,45.0,93,30.09,2.0,Calm,Calm,-,0.02,Rain,Rain,0,2012-02-04 20:53:00
4:07 PM,46.4,44.6,93,30.10,1.0,South,3.5,-,0.05,Rain,Rain,180,2012-02-04 21:07:00
4:10 PM,46.4,46.4,100,30.10,2.0,Calm,Calm,-,0.06,Rain,Light Rain,0,2012-02-04 21:10:00
4:22 PM,46.4,46.4,100,30.10,2.0,Calm,Calm,-,0.07,Rain,Light Rain,0,2012-02-04 21:22:00
4:38 PM,46.4,46.4,100,30.10,2.0,South,3.5,-,0.08,Rain,Light Rain,180,2012-02-04 21:38:00
4:53 PM,46.9,46.0,97,30.09,2.0,South,3.5,-,0.08,Rain,Light Rain,180,2012-02-04 21:53:00
5:23 PM,46.4,46.4,100,30.10,2.0,Calm,Calm,-,0.01,Rain,Light Rain,0,2012-02-04 22:23:00
5:53 PM,46.9,46.0,97,30.07,2.0,Calm,Calm,-,0.03,Rain,Rain,0,2012-02-04 22:53:00
6:08 PM,46.4,46.4,100,30.08,2.0,South,3.5,-,0.01,Rain,Light Rain,170,2012-02-04 23:08:00
6:27 PM,46.4,46.4,100,30.08,2.0,South,3.5,-,0.03,Rain,Light Rain,170,2012-02-04 23:27:00
6:53 PM,46.9,46.0,97,30.07,2.0,NNW,6.9,-,0.04,Rain,Light Rain,330,2012-02-04 23:53:00
7:36 PM,48.2,46.4,93,30.09,5.0,Calm,Calm,-,0.00,,Overcast,0,2012-02-05 00:36:00
7:53 PM,48.0,46.0,93,30.07,5.0,Calm,Calm,-,0.00,,Overcast,0,2012-02-05 00:53:00
8:20 PM,46.4,46.4,100,30.08,2.0,Calm,Calm,-,N/A,,Overcast,0,2012-02-05 01:20:00
8:53 PM,48.0,46.9,96,30.06,2.0,Calm,Calm,-,N/A,,Overcast,0,2012-02-05 01:53:00
9:53 PM,48.0,46.9,96,30.04,2.0,Calm,Calm,-,0.01,Rain,Light Rain,0,2012-02-05 02:53:00
10:53 PM,46.9,46.0,97,30.02,2.0,Calm,Calm,-,0.01,,Overcast,0,2012-02-05 03:53:00
11:53 PM,46.9,46.9,100,30.00,2.0,Calm,Calm,-,0.00,Rain,Light Rain,0,2012-02-05 04:53:00